Time,TemperatureF,DewpointF,PressureIn,WindDirection,WindDirectionDegrees,WindSpeedMPH,WindSpeedGustMPH,Humidity,HourlyPrecipIn,Conditions,Clouds,dailyrainin,SoftwareType,DateUTC
2013-02-27 00:03:00,27.8,12.0,30.09,NW,317,0.0,3.0,52,0.00,,,0.00,weatherlink.com 1.10,2013-02-27 07:03:00,
2013-02-27 00:19:00,27.1,13.0,30.09,NW,317,1.0,3.0,55,0.00,,,0.00,weatherlink.com 1.10,2013-02-27 07:19:00,
2013-02-27 00:34:00,26.5,13.0,30.09,WNW,284,0.0,3.0,56,0.00,,,0.00,weatherlink.com 1.10,2013-02-27 07:34:00,
2013-02-27 00:49:00,25.5,12.0,30.10,WNW,284,1.0,1.0,58,0.00,,,0.00,weatherlink.com 1.10,2013-02-27 07:49:00,
2013-02-27 01:04:00,25.1,14.0,30.11,WNW,288,2.0,2.0,62,0.00,,,0.00,weatherlink.com 1.10,2013-02-27 08:04:00,
2013-02-27 01:19:00,24.6,13.0,30.11,ENE,63,0.0,3.0,62,0.00,,,0.00,weatherlink.com 1.10,2013-02-27 08:19:00,
2013-02-27 01:34:00,24.0,13.0,30.12,ENE,63,1.0,2.0,62,0.00,,,0.00,weatherlink.com 1.10,2013-02-27 08:34:00,
2013-02-27 01:49:00,23.6,12.0,30.12,West,272,1.0,3.0,62,0.00,,,0.00,weatherlink.com 1.10,2013-02-27 08:49:00,
2013-02-27 02:04:00,23.5,12.0,30.12,West,259,1.0,5.0,61,0.00,,,0.00,weatherlink.com 1.10,2013-02-27 09:04:00,
2013-02-27 02:19:00,23.7,12.0,30.13,ENE,59,0.0,4.0,61,0.00,,,0.00,weatherlink.com 1.10,2013-02-27 09:19:00,
2013-02-27 02:34:00,23.4,11.0,30.13,SE,145,0.0,4.0,60,0.00,,,0.00,weatherlink.com 1.10,2013-02-27 09:34:00,
2013-02-27 02:49:00,22.7,12.0,30.13,SE,146,0.0,2.0,63,0.00,,,0.00,weatherlink.com 1.10,2013-02-27 09:49:00,
2013-02-27 03:04:00,22.5,13.0,30.13,NNW,348,1.0,2.0,67,0.00,,,0.00,weatherlink.com 1.10,2013-02-27 10:04:00,
2013-02-27 03:19:00,22.0,13.0,30.14,NW,326,1.0,3.0,68,0.00,,,0.00,weatherlink.com 1.10,2013-02-27 10:19:00,
2013-02-27 03:34:00,21.8,13.0,30.14,NW,326,0.0,1.0,70,0.00,,,0.00,weatherlink.com 1.10,2013-02-27 10:34:00,
2013-02-27 03:49:00,21.3,13.0,30.13,NW,326,0.0,2.0,70,0.00,,,0.00,weatherlink.com 1.10,2013-02-27 10:49:00,
2013-02-27 04:04:00,20.9,13.0,30.13,WNW,293,0.0,3.0,70,0.00,,,0.00,weatherlink.com 1.10,2013-02-27 11:04:00,
2013-02-27 04:19:00,20.4,13.0,30.14,NNW,336,0.0,2.0,74,0.00,,,0.00,weatherlink.com 1.10,2013-02-27 11:19:00,
2013-02-27 04:34:00,20.4,13.0,30.14,NW,309,0.0,2.0,73,0.00,,,0.00,weatherlink.com 1.10,2013-02-27 11:34:00,
2013-02-27 04:49:00,20.2,13.0,30.14,North,5,0.0,2.0,73,0.00,,,0.00,weatherlink.com 1.10,2013-02-27 11:49:00,
2013-02-27 05:04:00,19.7,12.0,30.15,WSW,246,1.0,3.0,73,0.00,,,0.00,weatherlink.com 1.10,2013-02-27 12:04:00,
2013-02-27 05:19:00,19.9,13.0,30.15,NNE,15,0.0,2.0,73,0.00,,,0.00,weatherlink.com 1.10,2013-02-27 12:19:00,
2013-02-27 05:34:00,19.8,12.0,30.16,NNE,15,0.0,2.0,73,0.00,,,0.00,weatherlink.com 1.10,2013-02-27 12:34:00,
2013-02-27 05:49:00,20.0,13.0,30.16,NNE,15,0.0,2.0,74,0.00,,,0.00,weatherlink.com 1.10,2013-02-27 12:49:00,
2013-02-27 06:04:00,19.4,13.0,30.17,NNE,15,1.0,1.0,75,0.00,,,0.00,weatherlink.com 1.10,2013-02-27 13:04:00,
2013-02-27 06:19:00,18.8,13.0,30.18,NNE,15,0.0,2.0,77,0.00,,,0.00,weatherlink.com 1.10,2013-02-27 13:19:00,
2013-02-27 06:35:00,18.6,13.0,30.19,NNE,15,1.0,2.0,78,0.00,,,0.00,weatherlink.com 1.10,2013-02-27 13:35:00,
2013-02-27 06:50:00,18.9,13.0,30.20,NW,308,2.0,3.0,79,0.00,,,0.00,weatherlink.com 1.10,2013-02-27 13:50:00,
2013-02-27 07:05:00,18.5,13.0,30.19,West,281,2.0,3.0,78,0.00,,,0.00,weatherlink.com 1.10,2013-02-27 14:05:00,
2013-02-27 07:20:00,18.4,12.0,30.19,WSW,237,0.0,2.0,77,0.00,,,0.00,weatherlink.com 1.10,2013-02-27 14:20:00,
2013-02-27 07:35:00,20.3,14.0,30.20,NW,311,2.0,3.0,75,0.00,,,0.00,weatherlink.com 1.10,2013-02-27 14:35:00,
2013-02-27 07:50:00,24.0,14.0,30.20,WNW,300,3.0,4.0,66,0.00,,,0.00,weatherlink.com 1.10,2013-02-27 14:50:00,
2013-02-27 08:05:00,27.6,15.0,30.20,West,273,1.0,3.0,59,0.00,,,0.00,weatherlink.com 1.10,2013-02-27 15:05:00,
2013-02-27 08:20:00,31.1,15.0,30.21,NNW,335,4.0,8.0,52,0.00,,,0.00,weatherlink.com 1.10,2013-02-27 15:20:00,
2013-02-27 08:35:00,34.2,15.0,30.21,West,277,1.0,5.0,45,0.00,,,0.00,weatherlink.com 1.10,2013-02-27 15:35:00,
2013-02-27 08:50:00,36.7,15.0,30.20,WNW,294,3.0,8.0,41,0.00,,,0.00,weatherlink.com 1.10,2013-02-27 15:50:00,
2013-02-27 09:05:00,39.1,15.0,30.20,West,281,2.0,6.0,37,0.00,,,0.00,weatherlink.com 1.10,2013-02-27 16:05:00,
2013-02-27 09:20:00,41.9,15.0,30.20,West,265,2.0,5.0,33,0.00,,,0.00,weatherlink.com 1.10,2013-02-27 16:20:00,
2013-02-27 09:35:00,44.3,13.0,30.20,WSW,247,2.0,4.0,28,0.00,,,0.00,weatherlink.com 1.10,2013-02-27 16:35:00,
2013-02-27 09:50:00,46.9,13.0,30.20,WSW,250,1.0,7.0,25,0.00,,,0.00,weatherlink.com 1.10,2013-02-27 16:50:00,
2013-02-27 10:05:00,47.8,11.0,30.20,WNW,297,5.0,8.0,23,0.00,,,0.00,weatherlink.com 1.10,2013-02-27 17:05:00,
2013-02-27 10:20:00,47.9,12.0,30.19,West,281,1.0,6.0,23,0.00,,,0.00,weatherlink.com 1.10,2013-02-27 17:20:00,
2013-02-27 10:35:00,48.8,12.0,30.19,West,279,5.0,8.0,23,0.00,,,0.00,weatherlink.com 1.10,2013-02-27 17:35:00,
2013-02-27 10:50:00,51.1,13.0,30.18,WNW,296,2.0,7.0,22,0.00,,,0.00,weatherlink.com 1.10,2013-02-27 17:50:00,
2013-02-27 11:05:00,52.5,13.0,30.17,SSW,213,3.0,7.0,21,0.00,,,0.00,weatherlink.com 1.10,2013-02-27 18:05:00,
2013-02-27 11:20:00,53.6,13.0,30.17,East,97,1.0,6.0,20,0.00,,,0.00,weatherlink.com 1.10,2013-02-27 18:20:00,
2013-02-27 11:35:00,53.6,12.0,30.16,West,272,5.0,8.0,19,0.00,,,0.00,weatherlink.com 1.10,2013-02-27 18:35:00,
2013-02-27 11:50:00,54.4,13.0,30.15,WNW,290,4.0,8.0,19,0.00,,,0.00,weatherlink.com 1.10,2013-02-27 18:50:00,
2013-02-27 12:06:00,54.8,11.0,30.14,West,260,3.0,9.0,17,0.00,,,0.00,weatherlink.com 1.10,2013-02-27 19:06:00,
2013-02-27 12:21:00,54.4,10.0,30.14,ENE,75,9.0,9.0,17,0.00,,,0.00,weatherlink.com 1.10,2013-02-27 19:21:00,
2013-02-27 12:36:00,54.9,9.0,30.13,ENE,62,4.0,10.0,16,0.00,,,0.00,weatherlink.com 1.10,2013-02-27 19:36:00,
2013-02-27 12:51:00,55.2,9.0,30.13,East,91,6.0,14.0,16,0.00,,,0.00,weatherlink.com 1.10,2013-02-27 19:51:00,
2013-02-27 13:06:00,56.8,11.0,30.12,East,100,5.0,9.0,16,0.00,,,0.00,weatherlink.com 1.10,2013-02-27 20:06:00,
2013-02-27 13:21:00,56.5,8.0,30.11,East,84,5.0,9.0,14,0.00,,,0.00,weatherlink.com 1.10,2013-02-27 20:21:00,
2013-02-27 13:36:00,57.6,8.0,30.11,ESE,113,8.0,10.0,14,0.00,,,0.00,weatherlink.com 1.10,2013-02-27 20:36:00,
2013-02-27 13:51:00,58.4,9.0,30.10,SW,216,3.0,5.0,14,0.00,,,0.00,weatherlink.com 1.10,2013-02-27 20:51:00,
2013-02-27 14:06:00,59.2,11.0,30.09,SSW,207,5.0,9.0,15,0.00,,,0.00,weatherlink.com 1.10,2013-02-27 21:06:00,
2013-02-27 14:21:00,57.7,9.0,30.09,East,88,6.0,10.0,14,0.00,,,0.00,weatherlink.com 1.10,2013-02-27 21:21:00,
2013-02-27 14:36:00,57.7,12.0,30.09,ESE,103,0.0,6.0,16,0.00,,,0.00,weatherlink.com 1.10,2013-02-27 21:36:00,
2013-02-27 14:51:00,57.5,7.0,30.08,North,355,2.0,4.0,13,0.00,,,0.00,weatherlink.com 1.10,2013-02-27 21:51:00,
2013-02-27 15:06:00,57.9,9.0,30.08,WSW,246,1.0,6.0,14,0.00,,,0.00,weatherlink.com 1.10,2013-02-27 22:06:00,
2013-02-27 15:21:00,59.1,6.0,30.08,ENE,69,4.0,6.0,12,0.00,,,0.00,weatherlink.com 1.10,2013-02-27 22:21:00,
2013-02-27 15:36:00,59.5,8.0,30.08,East,86,2.0,8.0,13,0.00,,,0.00,weatherlink.com 1.10,2013-02-27 22:36:00,
2013-02-27 15:51:00,58.1,9.0,30.07,ESE,114,4.0,10.0,14,0.00,,,0.00,weatherlink.com 1.10,2013-02-27 22:51:00,
2013-02-27 16:06:00,58.9,8.0,30.07,South,182,0.0,3.0,13,0.00,,,0.00,weatherlink.com 1.10,2013-02-27 23:06:00,
2013-02-27 16:21:00,58.7,8.0,30.07,SE,128,6.0,8.0,13,0.00,,,0.00,weatherlink.com 1.10,2013-02-27 23:21:00,
2013-02-27 16:36:00,58.3,9.0,30.07,ESE,112,2.0,7.0,14,0.00,,,0.00,weatherlink.com 1.10,2013-02-27 23:36:00,
2013-02-27 16:51:00,58.2,9.0,30.07,SW,220,1.0,5.0,14,0.00,,,0.00,weatherlink.com 1.10,2013-02-27 23:51:00,
2013-02-27 17:06:00,57.6,7.0,30.07,SE,128,1.0,6.0,13,0.00,,,0.00,weatherlink.com 1.10,2013-02-28 00:06:00,
2013-02-27 17:21:00,56.5,4.0,30.07,WNW,303,2.0,3.0,12,0.00,,,0.00,weatherlink.com 1.10,2013-02-28 00:21:00,
2013-02-27 17:36:00,55.8,7.0,30.07,ESE,102,3.0,5.0,14,0.00,,,0.00,weatherlink.com 1.10,2013-02-28 00:36:00,
2013-02-27 17:51:00,54.2,7.0,30.08,ESE,102,1.0,5.0,15,0.00,,,0.00,weatherlink.com 1.10,2013-02-28 00:51:00,
2013-02-27 18:06:00,53.0,8.0,30.08,East,86,1.0,5.0,16,0.00,,,0.00,weatherlink.com 1.10,2013-02-28 01:06:00,
2013-02-27 18:21:00,51.8,8.0,30.09,ESE,116,0.0,5.0,17,0.00,,,0.00,weatherlink.com 1.10,2013-02-28 01:21:00,
2013-02-27 18:36:00,49.5,11.0,30.09,ESE,116,0.0,1.0,21,0.00,,,0.00,weatherlink.com 1.10,2013-02-28 01:36:00,
2013-02-27 18:51:00,46.7,11.0,30.10,ESE,116,1.0,2.0,23,0.00,,,0.00,weatherlink.com 1.10,2013-02-28 01:51:00,
2013-02-27 19:06:00,44.8,9.0,30.11,North,355,0.0,3.0,23,0.00,,,0.00,weatherlink.com 1.10,2013-02-28 02:06:00,
2013-02-27 19:21:00,44.2,9.0,30.12,SSW,199,1.0,4.0,24,0.00,,,0.00,weatherlink.com 1.10,2013-02-28 02:21:00,
2013-02-27 19:36:00,42.5,10.0,30.13,SSW,208,0.0,5.0,26,0.00,,,0.00,weatherlink.com 1.10,2013-02-28 02:36:00,
2013-02-27 19:51:00,43.1,7.0,30.14,East,88,5.0,9.0,23,0.00,,,0.00,weatherlink.com 1.10,2013-02-28 02:51:00,
2013-02-27 20:06:00,43.2,8.0,30.16,NW,311,2.0,3.0,23,0.00,,,0.00,weatherlink.com 1.10,2013-02-28 03:06:00,
2013-02-27 20:21:00,42.2,8.0,30.16,ENE,64,2.0,3.0,24,0.00,,,0.00,weatherlink.com 1.10,2013-02-28 03:21:00,
2013-02-27 20:36:00,41.6,7.0,30.17,ESE,121,2.0,3.0,24,0.00,,,0.00,weatherlink.com 1.10,2013-02-28 03:36:00,
2013-02-27 20:51:00,41.8,9.0,30.17,SE,128,0.0,5.0,26,0.00,,,0.00,weatherlink.com 1.10,2013-02-28 03:51:00,
2013-02-27 21:06:00,39.7,9.0,30.18,NW,304,1.0,3.0,28,0.00,,,0.00,weatherlink.com 1.10,2013-02-28 04:06:00,
2013-02-27 21:21:00,38.0,11.0,30.18,WNW,283,0.0,2.0,33,0.00,,,0.00,weatherlink.com 1.10,2013-02-28 04:21:00,
2013-02-27 21:36:00,35.9,11.0,30.19,WNW,301,0.0,3.0,35,0.00,,,0.00,weatherlink.com 1.10,2013-02-28 04:36:00,
2013-02-27 21:51:00,34.2,11.0,30.19,ENE,72,0.0,3.0,39,0.00,,,0.00,weatherlink.com 1.10,2013-02-28 04:51:00,
2013-02-27 22:06:00,32.5,10.0,30.19,SSE,150,0.0,2.0,39,0.00,,,0.00,weatherlink.com 1.10,2013-02-28 05:06:00,
2013-02-27 22:21:00,31.2,12.0,30.20,NW,305,0.0,3.0,46,0.00,,,0.00,weatherlink.com 1.10,2013-02-28 05:21:00,
2013-02-27 22:36:00,30.4,13.0,30.20,ENE,62,1.0,3.0,48,0.00,,,0.00,weatherlink.com 1.10,2013-02-28 05:36:00,
2013-02-27 22:51:00,29.4,12.0,30.20,NW,304,0.0,3.0,49,0.00,,,0.00,weatherlink.com 1.10,2013-02-28 05:51:00,
2013-02-27 23:06:00,28.4,12.0,30.19,WSW,250,3.0,3.0,50,0.00,,,0.00,weatherlink.com 1.10,2013-02-28 06:06:00,
2013-02-27 23:21:00,27.4,12.0,30.19,WNW,292,0.0,3.0,52,0.00,,,0.00,weatherlink.com 1.10,2013-02-28 06:21:00,
2013-02-27 23:36:00,27.1,12.0,30.19,SW,215,0.0,2.0,54,0.00,,,0.00,weatherlink.com 1.10,2013-02-28 06:36:00,
2013-02-27 23:51:00,26.9,12.0,30.20,South,175,1.0,2.0,54,0.00,,,0.00,weatherlink.com 1.10,2013-02-28 06:51:00,